Location: ???????
(55.4362°N, 38.1183°E)
Time: 01:31:29
(UTC+00:00)

METEOR M2 - Pass Details

Date: 30 November 2021
Orbit: 818 x 827 km, 98.4° (Epoch: 28 January)

Event Time Altitude Azimuth Distance (km) Brightness Sun altitude
Rises 04:08:40 0° 20° (NNE) 3,374 ? -10.6°
Reaches altitude 10° 04:11:18 10° 31° (NNE) 2,435 ? -10.3°
Maximum altitude 04:16:05 32° 93° (E) 1,397 ? -9.7°
Drops below altitude 10° 04:20:50 10° 156° (SSE) 2,415 ? -9.1°
Sets 04:23:25 0° 166° (SSE) 3,341 ? -8.7°
